INTELSAT NEW DAWN

Last updated on Jan. 15, 2021, 6:30 a.m. UTC

1 37392U 11016A   21014.82757632  .00000149  00000-0  00000-0 0  9995
2 37392   0.0086 292.1911 0000784 272.2256 240.7627  1.00270234 33452
UTC
Height (km)
Latitude
Longitude
Inclination
Orbital Period
UTC large
Height (km)
Speed (km/s)
/
Latitude / Longitude
Inclination (degrees)
Orbital Period (minutes)
Azimuth
Elevation
Range (km)
Doppler Factor
iOS Compass Heading
iOS Angle

Next 30 passes for location: Hong Kong

Rise time Rise Azimuth (degrees) Set time Set Azimuth (degrees) Duration Max altitude (degrees)

No matching passes for this satellites